Location: Boitzum
(52.1496°N, 9.6943°E)
Time: 01:31:53
(UTC+00:00)

Cosmos 2074 Rocket - Pass Details

Date: 28 April 2026
Orbit: 967 x 984 km, 82.9° (Epoch: 19 May)

Event Time Altitude Azimuth Distance (km) Brightness Sun altitude
Rises 02:21:03 0° 354° (N) 3,707 7.6 -12.9°
Reaches altitude 10° 02:24:10 10° 8° (N) 2,754 7.2 -12.6°
Maximum altitude 02:29:08 24° 61° (ENE) 1,932 6.6 -12.0°
Drops below altitude 10° 02:34:04 10° 113° (ESE) 2,738 6.7 -11.5°
Sets 02:37:08 0° 127° (SE) 3,679 7.2 -11.1°
